STARLINK-32769, 62602

Orbit data source: Space-Track

STARLINK-32769, 62602 is a payload satellite owned by SpaceX/Seattle (US) in LEO that was launched on Mon, 13 Jan 2025 UTC via an FALCON 9 launch vehicle from the Air Force Eastern Test Range (AFETR). Payloads include a variety of satellites, spacecraft, and rockets equipped with specific instruments for various scientific and technological missions. These include communications satellites like Starlink; space stations such as the ISS; scientific satellites like the Hubble; Earth observation satellites from companies like Planet Labs, Umbra, and HawkEye 360; GPS; miniature CubeSats for education and research; and military/defense satellites.

Loading next visibility...
STARLINK-32769 details
Identifier
62602, 2025-008R
Orbit
LEO
Last TLE update8 hours ago
Origin
Flag of USSpaceX/Seattle (US)
ManufacturerSpaceX/Seattle
MissionOperational spacecraft
Bus & MotorSTARLINK V2M, Unknown motor
Mass730 kg wet, ~700 kg dry
Launch date (UTC)
2025-01-13 (1 month ago)
Launch vehicle
FALCON 9
Launch site
Air Force Eastern Test Range (AFETR)
Object type
Payload
Rocket body
Debris
Shape & HBRUnknown
Radar Cross SectionLarge (>1 m²)

Expand to show TLE details & history

TLE from 8 hours ago
0 STARLINK-32769
1 62602U 25008R   25047.16668981  .00120905  00000-0  28616-2 0  9996
2 62602  42.9988 301.9271 0001557 274.9440 232.3182 15.40640398  6488
Epoch: 2025-02-16T04:00Z
Definitive object data (Epoch: 2025-02-16T04:00:01.999Z)
Latitude21.72326°
Longitude-109.62901°
Altitude444.362 km
Speed7.649 km/s
True Right ascension06h 27m 07s
True Declination21° 35' 59"
Sunlit
Object was in full shadow at TLE epoch
Visualization TLE readout
Latitude-41.30908°
Longitude23.91451°
Altitude455.51 km
Speed7.64 km/s
Apparent Right ascension18h 26m 49s
Apparent Declination-87° 35' 28"
Sunlit
Object is in daylight
Visualization observer readout
Local Sidereal Time15:09:06
Azimuth177.668° S
Elevation-38.326°
Doppler factor1
Orbital elements
Apogee altitude447.237 km
Perigee altitude445.112 km
Semi-major axis6,824.312 km
Eccentricity0.0001557
Inclination42.9988°
RAAN301.9271°
Arg. of periapsis274.944°
True anomaly232.30408°
Mean anomaly232.3182°
Eccentric anomaly232.31114°
Mean motion3.84995 °/min
BSTAR0.0028616
Orbital period93.51 mins
Loading maneuver chart data...
Loading historical data...
Loading historical data...
Loading historical data...
Loading historical data...
Loading historical data...
Loading historical data...
Loading historical data...

STARLINK-32769 Visibility forecast

Observer location: undefined°, undefined

Span
Click to sort rows by Start time (UTC) header in descending order
Start Az.
Max El. time (UTC)
Max El. Az.
Max El.
End time (UTC)
End Az.
5 mins2025-02-16 20:43:35.219Z227.606° WSW2025-02-16 20:45:35.219Z135.121° SSE40.267°2025-02-16 20:48:35.219Z76.699° E
5 mins2025-02-16 22:21:35.219Z284.107° WNW2025-02-16 22:23:35.219Z0.901° NNE38.613°2025-02-16 22:26:35.219Z70.335° E
5 mins2025-02-16 23:59:35.219Z294.788° NW2025-02-17 00:01:35.219Z349.734° N40.58°2025-02-17 00:04:35.219Z90.16° ESE
5 mins2025-02-17 01:37:35.219Z271.453° WNW2025-02-17 01:39:35.219Z219.495° SW33.328°2025-02-17 01:42:35.219Z139.263° SSE
|